Regional Weather Roundup
Issued by NWS

Home | Current Version | Previous Version | Graphics & Text | Print | Product List | Glossary On
Versions: 1 2 3 4 5 6 7 8 9 10 11 12 13 14 15 16 17 18 19 20 21 22 23 24 25 26 27 28 29 30 31 32 33 34 35 36 37 38 39 40 41 42 43 44 45 46 47 48 49 50
000
ASUS43 KMPX 241601
RWRMN
WEATHER ROUNDUP FOR MINNESOTA
NATIONAL WEATHER SERVICE TWIN CITIES/CHANHASSEN MN
1100 AM CDT TUE MAY 24 2016


NOTE: "FAIR" INDICATES FEW OR NO CLOUDS BELOW 12,000 FEET WITH NO
SIGNIFICANT WEATHER AND/OR OBSTRUCTIONS TO VISIBILITY. N/A MEANS
CURRENT SKY AND/OR WEATHER CONDITIONS ARE NOT AVAILABLE.

MNZ060>063-068>070-241700-
   Twin Cities Metro

CITY           SKY/WX    TMP DP  RH WIND       PRES   REMARKS
TWIN CITIES    PTSUNNY   77  60  55 W9        29.87R
ST PAUL        MOSUNNY   76  61  59 W9        29.87R
CRYSTAL        PTSUNNY   73  61  65 NW9       29.87R
EDEN PRAIRIE   SUNNY     76  62  62 W8        29.86R
SOUTH ST PAUL  MOSUNNY   77  58  52 W7        29.87R
LAKE ELMO      FAIR      77  61  57 W7        29.88R
$$
MNZ001>005-007-008-013>017-022>024-027-028-241700-
   Northwest Minnesota

CITY           SKY/WX    TMP DP  RH WIND       PRES   REMARKS
BEMIDJI        CLOUDY    64  55  73 SE8       29.87F
HALLOCK        PTSUNNY   70  55  60 E7        29.83R
ROSEAU         CLOUDY    66  55  68 N7        29.85S
WARROAD        CLOUDY    64  54  68 W7        29.85S
THIEF RVR FALL SUNNY     70  50  49 CALM      29.86R
CROOKSTON      SUNNY     70  54  56 SW8       29.85R
FOSSTON          N/A     66  52  59 S8        29.86R
MOORHEAD       SUNNY     75  48  38 SE13      29.84R
PARK RAPIDS    SUNNY     72  47  40 N8        29.88F
MAHNOMEN       FAIR      66  54  66 SE6       29.85R
$$
MNZ006-009>011-018-025>026-241700-
   North Central Minnesota

CITY           SKY/WX    TMP DP  RH WIND       PRES   REMARKS
BAUDETTE       CLOUDY    71  48  43 NW9       29.84R
FLAG ISLAND    PTSUNNY   64  48  55 CALM      29.83R
INTL FALLS     CLOUDY    68  56  65 SW7       29.86R
WASKISH        SUNNY     70  52  52 CALM      29.86F
BIG FORK       MOSUNNY   73  50  43 SW5       29.89R
LONGVILLE      SUNNY     66  54  63 NW8G16    29.91R
CRANE LAKE     CLOUDY    64  61  88 CALM      29.89R
ORR            CLOUDY    64  54  68 CALM      29.85R
COOK           MOSUNNY   66  57  72 W3        29.87R
WALKER         FAIR      69  50  50 N8        29.89F
$$
MNZ012-019>021-037-241700-
   Northeast Minnesota

CITY           SKY/WX    TMP DP  RH WIND       PRES   REMARKS
DULUTH         MOSUNNY   66  56  70 E10       29.86S
ELY            PTSUNNY   64  57  77 CALM      29.87R
HIBBING        MOSUNNY   69  52  54 CALM      29.86S
EVELETH        MOSUNNY   70  54  56 CALM      29.87F
DULUTH HARBOR  FOG       57  55  94 CALM      29.86F VSB<1/4
TWO HARBORS    SUNNY     70  61  73 E9        29.84R
SILVER BAY     MOSUNNY   66  57  72 NE6       29.85R
GRAND MARAIS     N/A     50  49  96 NE7       29.87F
G MARAIS ARPRT LGT RAIN  57  54  88 E5        29.91F
$$
MNZ029>031-032-039>041-046>048-054>057-064-241700-
   West Central Minnesota

CITY           SKY/WX    TMP DP  RH WIND       PRES   REMARKS
FERGUS FALLS   SUNNY     72  54  53 E9        29.83S
WHEATON        SUNNY     77  61  57 CALM      29.85F
MORRIS         SUNNY     75  57  53 SE7       29.84R
ALEXANDRIA     SUNNY     72  60  66 E8        29.88R
ELBOW LAKE     FAIR      73  58  60 E9        29.86R
WADENA         MOSUNNY   72  54  53 NE6       29.88S
GLENWOOD       SUNNY     73  63  68 E7        29.87R
APPLETON       SUNNY     75  57  53 CALM      29.85R
BENSON         SUNNY     75  57  53 SE6       29.85R
ORTONVILLE     SUNNY     73  55  53 CALM      29.85R
MADISON        SUNNY     73  57  56 CALM      29.85S
WILLMAR        FAIR      72  64  78 E6        29.88S
$$
MNZ033>034-036-042>043-049>051-058-059-241700-
   Central Minnesota

CITY           SKY/WX    TMP DP  RH WIND       PRES   REMARKS
ST CLOUD       CLOUDY    70  62  76 CALM      29.87S
SAUK CENTRE    CLOUDY    65  62  89 E6        29.88R
PAYNESVILLE    SUNNY     69  64  82 SE8       29.88R
AITKIN         SUNNY     75  48  38 NE9       29.85S
PINE RIVER     MOSUNNY   68  55  64 NW7       29.94R
BRAINERD       SUNNY     72  52  49 NE7       29.88R
STAPLES        MOSUNNY   73  48  40 E6        29.89R
LONG PRAIRIE   FAIR      68  59  73 E8        29.88R
LITTLE FALLS   SUNNY     72  55  56 SE8       29.88R
LITCHFIELD     CLOUDY    68  66  94 CALM      29.89R
BUFFALO        CLOUDY    66  61  83 SW3       29.89S
MAPLE LAKE     CLOUDY    67  64  90 CALM      29.89S FOG
HUTCHINSON     CLOUDY    68  65  90 NW6       29.89R FOG
$$
MNZ037-044-045-052-053-241700-
   East Central Minnesota

CITY           SKY/WX    TMP DP  RH WIND       PRES   REMARKS
PRINCETON      CLOUDY    70  63  78 SW3       29.88R
MORA           SUNNY     70  59  68 CALM      29.87S
CAMBRIDGE      CLOUDY    72  61  68 SW5       29.86R
RUSH CITY      CLOUDY    68  62  82 W5        29.87R
MOOSE LAKE     CLOUDY    64  59  82 NE5       29.85S
HINCKLEY       CLOUDY    70  61  73 CALM      29.86R
CLOQUET        SUNNY     66  55  68 E7        29.87R
MCGREGOR       SUNNY     70  57  64 E9        29.87S
$$
MNZ071>073-080-081-089-090-097-098-241700-
   Southwest Minnesota

CITY           SKY/WX    TMP DP  RH WIND       PRES   REMARKS
MONTEVIDEO     SUNNY     75  63  64 S5        29.87S
GRANITE FALLS  SUNNY     75  65  70 CALM      29.87S
CANBY          SUNNY     75  66  73 E6        29.87R
MARSHALL       PTSUNNY   73  63  70 SW7       29.87S
REDWOOD FALLS  CLOUDY    72  63  73 W6        29.86S
OLIVIA         MOSUNNY   70  63  78 CALM      29.86S
PIPESTONE      MOSUNNY   70  63  78 SW6       29.88R
WINDOM         MOSUNNY   72  63  73 SW9       29.89R
WORTHINGTON    MOSUNNY   67  63  87 S12       29.90R
JACKSON        PTSUNNY   70  61  73 SW10      29.90R
SLAYTON        CLOUDY    72  63  73 SW8       29.90R
$$
MNZ065>067-074>077-082>085-091>093-241700-
   South Central Minnesota

CITY           SKY/WX    TMP DP  RH WIND       PRES   REMARKS
MANKATO        MOSUNNY   73  59  60 W13       29.88S
NEW ULM        PTSUNNY   73  63  68 SW8       29.88R
ST JAMES       MOSUNNY   70  57  64 SW7       29.89R
FAIRMONT       PTSUNNY   70  63  78 SW10      29.88S
GLENCOE        PTSUNNY   73  68  83 W8        29.87R
FARIBAULT      MOSUNNY   75  61  60 SW10      29.89S
OWATONNA       CLOUDY    75  55  50 SW9       29.90R
WASECA         PTSUNNY   73  55  53 SW10      29.91R
ALBERT LEA     CLOUDY    73  59  60 SW5       29.91R
$$
MNZ078>079-086>088-094>096-241700-
   Southeast Minnesota

CITY           SKY/WX    TMP DP  RH WIND       PRES   REMARKS
ROCHESTER      CLOUDY    71  63  75 W10       29.92R
RED WING       MOSUNNY   77  63  61 W9        29.86S
STANTON        PTSUNNY   76  61  58 W6        29.87S
DODGE CENTER   CLOUDY    75  57  53 W10       29.91R
WINONA         MOSUNNY   73  63  68 W6        29.90R
AUSTIN         CLOUDY    72  59  64 SW8       29.92R
PRESTON        CLOUDY    71  60  69 SW6       29.93R
$$
ABBREVIATIONS USED IN REMARKS
   TC - TEMPERATURES IN CELSIUS
  WCI - WIND CHILL INDEX
   HX - HEAT INDEX
  VSB - VISIBILITY
$$



USA.gov is the U.S. government's official web portal to all federal, state and local government web resources and services.